Location: Aydie
(43.5695°N, 0.1043°W)
Time: 12:18:56
(UTC+00:00)

DELTA 2 R/B (1) - Pass Details

Date: 17 November 2025
Orbit: 786 x 800 km, 39.6° (Epoch: 06 December)

Event Time Altitude Azimuth Distance (km) Brightness Sun altitude
Rises 19:01:32 0° 236° (SW) 3,272 7.6 -26.7°
Reaches altitude 10° 19:04:08 10° 229° (SW) 2,343 6.6 -27.2°
Enters shadow 19:08:22 37° 184° (S) 1,208 4.5 -27.9°
